Weather History for Hermiston, OR

Change the Weather History Date:

Saturday, February 15, 2014

  Actual Average Record
Temperature  
Mean Temperature 40 °F -  
Max Temperature 44 °F 48 °F 63 °F (1982)
Min Temperature 36 °F 30 °F -8 °F (1936)
Degree Days  
Heating Degree Days 25    
Moisture  
Dew Point 38 °F    
Average Humidity 91    
Maximum Humidity 100    
Minimum Humidity 74    
Precipitation  
Precipitation 0.18 in - - ()
Sea Level Pressure  
Sea Level Pressure 29.69 in    
Wind  
Wind Speed 4 mph (NNE)    
Max Wind Speed 17 mph    
Max Gust Speed 23 mph    
Visibility 10 miles    
Events Rain    
Averages and records for this station are not official NWS values.
T = Trace of Precipitation, MM = Missing Value Source: NWS Daily Summary

Daily Weather History Graph

Daily Weather History Graph

Search for Another Location

Airport:

Trip Planner

Search our weather history database for the weather conditions in past years. The results will help you decide how hot, cold, wet, or windy it might be!

Date:

Astronomy

Feb. 15, 2014 Rise Set
Actual Time 6:59 AM PST 5:23 PM PST
Civil Twilight 6:28 AM PST 5:54 PM PST
Nautical Twilight 5:53 AM PST 6:29 PM PST
Astronomical Twilight 5:19 AM PST 7:03 PM PST
Moon 6:34 PM PST (2/15) 6:55 AM PST (2/15)
Length of Visible Light 11h 25m
Length of Day
10h 24m
Full, 99% of the Moon is Illuminated
Feb 15
Full
Feb 22
Last Quarter
Mar 1
New
Mar 8
First Quarter
Mar 16
Full

Hourly Weather History & Observations

Time (PST) Temp. Windchill Dew Point Humidity Pressure Visibility Wind Dir Wind Speed Gust Speed Precip Events Conditions
12:53 AM 39.9 °F - 36.0 °F 86% 29.97 in 10.0 mi Calm Calm - N/A   Mostly Cloudy
1:53 AM 39.0 °F - 36.0 °F 89% 29.96 in 10.0 mi Calm Calm - N/A   Clear
2:53 AM 36.0 °F 33.3 °F 34.0 °F 93% 29.94 in 10.0 mi SSE 3.5 mph - N/A   Clear
3:53 AM 39.0 °F 34.8 °F 36.0 °F 89% 29.92 in 10.0 mi SE 5.8 mph - N/A   Overcast
4:53 AM 37.9 °F 34.4 °F 36.0 °F 93% 29.92 in 10.0 mi NNE 4.6 mph - N/A   Overcast
5:53 AM 39.9 °F 36.7 °F 36.0 °F 86% 29.87 in 10.0 mi ESE 4.6 mph - N/A   Overcast
6:53 AM 39.0 °F 36.8 °F 36.0 °F 89% 29.86 in 10.0 mi NNE 3.5 mph - N/A   Overcast
7:53 AM 39.9 °F 37.8 °F 36.0 °F 86% 29.83 in 10.0 mi East 3.5 mph - N/A   Overcast
8:53 AM 39.9 °F 36.7 °F 37.0 °F 89% 29.81 in 10.0 mi NW 4.6 mph - N/A   Overcast
9:53 AM 41.0 °F - 37.9 °F 89% 29.77 in 10.0 mi Calm Calm - 0.00 in Rain Light Rain
10:53 AM 44.1 °F 41.5 °F 39.9 °F 85% 29.73 in 10.0 mi NE 4.6 mph - 0.01 in Rain Light Rain
11:53 AM 44.1 °F 42.5 °F 42.1 °F 93% 29.68 in 10.0 mi North 3.5 mph - 0.02 in Rain Light Rain
12:53 PM 43.0 °F 36.8 °F 41.0 °F 93% 29.62 in 10.0 mi NNE 11.5 mph - 0.04 in Rain Light Rain
1:53 PM 42.1 °F 37.1 °F 39.9 °F 92% 29.60 in 10.0 mi NNE 8.1 mph - 0.01 in   Overcast
2:53 PM 44.1 °F 38.6 °F 41.0 °F 89% 29.55 in 10.0 mi NE 10.4 mph - N/A   Overcast
3:53 PM 43.0 °F 38.2 °F 39.9 °F 89% 29.54 in 10.0 mi North 8.1 mph - 0.00 in Rain Light Rain
4:53 PM 42.1 °F - 39.9 °F 92% 29.52 in 10.0 mi Calm Calm - 0.00 in Rain Light Rain
5:53 PM 39.9 °F 37.8 °F 39.0 °F 97% 29.49 in 10.0 mi SE 3.5 mph - 0.00 in   Overcast
6:05 PM 39.9 °F - 39.0 °F 97% 29.48 in 10.0 mi Calm Calm - N/A   Overcast
6:53 PM 41.0 °F 39.0 °F 39.0 °F 93% 29.47 in 10.0 mi Variable 3.5 mph - N/A   Overcast
7:41 PM 41.0 °F 37.1 °F 39.9 °F 96% 29.51 in 7.0 mi SW 5.8 mph - 0.01 in Rain Light Rain
7:53 PM 41.0 °F 34.7 °F 39.0 °F 93% 29.55 in 9.0 mi West 10.4 mph - 0.01 in Rain Light Rain
8:16 PM 39.9 °F 34.5 °F 39.9 °F 100% 29.55 in 7.0 mi SSW 8.1 mph - 0.07 in Rain Rain
8:53 PM 39.9 °F 33.9 °F 39.0 °F 97% 29.57 in 10.0 mi South 9.2 mph - 0.09 in Rain Light Rain
9:53 PM 41.0 °F 35.8 °F 39.0 °F 93% 29.60 in 10.0 mi WNW 8.1 mph - 0.00 in   Overcast
10:53 PM 44.1 °F 36.5 °F 39.0 °F 82% 29.67 in 10.0 mi WSW 17.3 mph - N/A   Clear
11:53 PM 43.0 °F 36.0 °F 35.1 °F 74% 29.70 in 10.0 mi WSW 13.8 mph 23.0 mph N/A   Clear